This demonstration page uses our WeatherBlox Daily Observations layout. Learn more.

Left ArrowRight Arrow

38.89511, -77.03637

Hourly Observations for March 13, 2021

Temp ( °F °C ) Dew Point ( °F °C ) Humidity (%) Winds ( mph kmh ) Pressure ( in mb ) Visibility ( mi km ) Precip ( " mm )
12:52 am 00:52 Cloudy 58 14.4 25 -3.9 28 28 WNW 14 22 30.2 1023 10 16.0934 0 0
1:52 am 01:52 Cloudy 56 13.3 23 -5 28 28 NNW 13 20 30.21 1023 10 16.0934 0 0
2:52 am 02:52 Cloudy 55 12.8 20 -6.7 25 25 NNW 18 30 30.21 1023 10 16.0934 0 0
3:52 am 03:52 Cloudy 54 12.2 22 -5.6 29 29 NNW 15 24 30.24 1024 10 16.0934 0 0
4:52 am 04:52 Cloudy 52 11.1 21 -6.1 30 30 NNW 17 28 30.27 1025 10 16.0934 0 0
5:52 am 05:52 Mostly Clear 49 9.4 21 -6.1 33 33 NNW 16 26 30.3 1026 10 16.0934 0 0
6:52 am 06:52 Partly Cloudy 47 8.3 17 -8.3 30 30 NNW 17 28 30.33 1027 10 16.0934 0 0
7:52 am 07:52 Mostly Cloudy 47 8.3 16 -8.9 29 29 NNW 12 19 30.36 1028 10 16.0934 0 0
8:52 am 08:52 Mostly Cloudy 49 9.4 11 -11.7 21 21 N 15 24 30.38 1029 10 16.0934 0 0
9:52 am 09:52 Partly Cloudy 50 10 9 -12.8 19 19 N 12 19 30.38 1029 10 16.0934 0 0
10:52 am 10:52 Partly Cloudy 52 11.1 12 -11.1 20 20 N 9 15 30.37 1029 10 16.0934 0 0
11:52 am 11:52 Mostly Cloudy 54 12.2 15 -9.4 21 21 NW 8 13 30.37 1028 10 16.0934 0 0
12:52 pm 12:52 Mostly Cloudy 55 12.8 11 -11.7 17 17 NNW 8 13 30.35 1028 10 16.0934 0 0
1:52 pm 13:52 Mostly Cloudy 56 13.3 12 -11.1 17 17 N 8 13 30.29 1026 10 16.0934 0 0
2:52 pm 14:52 Mostly Cloudy 58 14.4 12 -11.1 16 16 VRB 7 11 30.28 1025 10 16.0934 0 0
3:52 pm 15:52 Mostly Cloudy 59 15 12 -11.1 15 15 Calm 30.26 1025 10 16.0934 0 0
4:52 pm 16:52 Cloudy 57 13.9 17 -8.3 21 21 SSE 5 7 30.23 1024 10 16.0934 0 0
5:52 pm 17:52 Cloudy 54 12.2 20 -6.7 26 26 S 8 13 30.21 1023 10 16.0934 0 0
6:52 pm 18:52 Mostly Cloudy 51 10.6 16 -8.9 25 25 SW 6 9 30.21 1023 10 16.0934 0 0
7:52 pm 19:52 Partly Cloudy 50 10 16 -8.9 26 26 SW 7 11 30.21 1023 10 16.0934 0 0
8:52 pm 20:52 Partly Cloudy 49 9.4 16 -8.9 27 27 SW 7 11 30.21 1023 10 16.0934 0 0
9:52 pm 21:52 Partly Cloudy 48 8.9 18 -7.8 30 30 WSW 8 13 30.23 1024 10 16.0934 0 0
10:52 pm 22:52 Partly Cloudy 51 10.6 13 -10.6 22 22 NW 10 17 30.21 1023 10 16.0934 0 0
11:52 pm 23:52 Mostly Clear 51 10.6 15 -9.4 24 24 WNW 8 13 30.2 1023 10 16.0934 0 0

Powered by AerisWeather